Location: Black Forest
(43.4794°N, 75.0081°W)
Time: 11:24:42
(UTC-04:00)

ISS - Visible Passes

Search period start: 22 October 2014 00:00
Search period end: 01 November 2014 00:00
Orbit: 413 x 416 km, 51.6° (Epoch: 22 October)

Date Brightness Start Highest point End Pass type
(mag) Time Alt. Az. Time Alt. Az. Time Alt. Az.
22 Oct -3.3 19:41:31 10° NW 19:44:50 62° NNE 19:44:58 61° NE visible
23 Oct -2.7 18:52:28 10° NW 18:55:40 41° NNE 18:58:03 16° E visible
23 Oct -0.8 20:29:18 10° WNW 20:30:55 22° W 20:30:55 22° W visible
24 Oct -2.7 19:39:58 10° WNW 19:43:15 54° SW 19:44:04 41° SSE visible
25 Oct -3.3 18:50:45 10° WNW 18:54:06 88° NNE 18:57:21 11° ESE visible
25 Oct -0.3 20:28:50 10° WSW 20:30:14 13° SW 20:30:14 13° SW visible
26 Oct -0.9 19:38:42 10° W 19:41:19 21° SW 19:43:41 11° S visible
27 Oct -1.7 18:49:06 10° WNW 18:52:11 36° SW 18:55:16 10° SSE visible
29 Oct -0.2 18:48:02 10° W 18:49:56 14° SW 18:51:49 10° SSW visible
